Home   Weather   Makati   Past weeks

Flag for Philippines Past Weather in Makati, Philippines — Yesterday and Last 2 Weeks

Now
88 °F

Broken clouds.


Feels Like: 98 °F
Forecast: 77 / 90 °F
Wind: 6 mph from West

Location: National Airport

Current Time: Dec 10, 2016 at 3:19:50 pm

Latest Report: Dec 10, 2016 at 3:00 pm


Visibility: N/A

Pressure: 29.71 "Hg

Humidity: 66%

Dew Point: 75 °F

Location of MakatiLocation

Past Weather in Makati — Graph

°F

Makati Temperature Yesterday

Maximum temperature yesterday: 90 °F (at 1:00 pm)
Minimum temperature yesterday: 79 °F (at 1:00 am)
Average temperature yesterday: 83 °F

High & Low Weather Summary for the Past Weeks

 TemperatureHumidityPressure
High91 °F (Nov 27, 2:00 pm)100% (Nov 25, 11:00 pm)29.98 "Hg (Nov 25, 11:00 pm)
Low75 °F (Nov 26, 12:00 am)49% (Dec 4, 2:00 pm)29.65 "Hg (Dec 8, 3:00 pm)
Average82 °F81%29.84 "Hg
* Reported Nov 25 2:00 pm — Dec 10 2:00 pm, Makati, Weather by CustomWeather, © 2016

Note: Actual official high and low records may vary slightly from our data, if they occured in-between our weather recording intervals... More about our weather records

Advertising

Makati Weather History for the Previous 24 Hours

Scroll right to see more
 ConditionsComfort  
Time TempWeatherWind HumidityBarometerVisibility
2:00 pm
Sat, Dec 10
86 °FScattered clouds.7 mph66%29.71 "HgN/A
1:00 pm86 °FPartly sunny.7 mph70%29.74 "HgN/A
12:00 pm86 °FBroken clouds.7 mph70%29.77 "HgN/A
11:00 am88 °FPartly sunny.5 mph59%29.80 "HgN/A
10:00 am88 °FScattered clouds.5 mph62%29.80 "HgN/A
9:00 am86 °FScattered clouds.5 mph70%29.83 "HgN/A
8:00 am84 °FScattered clouds.3 mph79%29.83 "HgN/A
7:00 am81 °FScattered clouds.3 mph94%29.80 "HgN/A
6:00 am81 °FPassing clouds.3 mph94%29.80 "HgN/A
5:00 am81 °FPassing clouds.3 mph94%29.77 "HgN/A
4:00 am81 °FPassing clouds.5 mph84%29.77 "HgN/A
3:00 am81 °FPartly cloudy.3 mph84%29.77 "HgN/A
2:00 am81 °FPassing clouds.2 mph84%29.77 "HgN/A
1:00 am81 °FPassing clouds.3 mph84%29.77 "HgN/A
12:00 am82 °FPassing clouds.5 mph79%29.77 "HgN/A
11:00 pm
Fri, Dec 9
81 °FPassing clouds.3 mph84%29.80 "HgN/A
10:00 pm82 °FPassing clouds.3 mph79%29.77 "HgN/A
9:00 pm82 °FPassing clouds.7 mph79%29.77 "HgN/A
8:00 pm82 °FPassing clouds.7 mph79%29.77 "HgN/A
7:00 pm82 °FPassing clouds.7 mph84%29.74 "HgN/A
6:00 pm84 °FPassing clouds.8 mph79%29.74 "HgN/A
5:00 pm86 °FPartly sunny.7 mph66%29.71 "HgN/A
4:00 pm88 °FPartly sunny.6 mph66%29.68 "HgN/A
3:00 pm88 °FPartly sunny.9 mph62%29.68 "HgN/A
Weather by CustomWeather, © 2016

See weather overviewHow to use our weather pages